Location: ????????
(55.5667°N, 37.5833°E)
Time: 18:12:50
(UTC+00:00)

Cosmos 1821 Rocket - Pass Details

Date: 14 April 2026
Orbit: 945 x 1003 km, 82.9° (Epoch: 16 May)

Event Time Altitude Azimuth Distance (km) Brightness Sun altitude
Exits shadow 18:04:32 - 175° (S) 3,406 6.4 -12.2°
Reaches altitude 10° 18:06:23 10° 173° (S) 2,719 5.9 -12.4°
Maximum altitude 18:12:31 62° 94° (E) 1,106 4.1 -13.0°
Drops below altitude 10° 18:18:46 10° 16° (NNE) 2,774 6.7 -13.7°
Sets 18:21:21 0° 13° (NNE) 3,733 7.5 -14.0°
